Time,TemperatureF,DewpointF,PressureIn,WindDirection,WindDirectionDegrees,WindSpeedMPH,WindSpeedGustMPH,Humidity,HourlyPrecipIn,Conditions,Clouds,dailyrainin,SoftwareType,DateUTC
2013-10-19 00:24:00,41.0,27.0,30.19,SSE,164,3.0,5.0,57,0.00,,,0.00,,2013-10-19 04:24:00,
2013-10-19 00:43:00,41.0,27.0,30.19,SSE,164,2.0,5.0,57,0.00,,,0.00,,2013-10-19 04:43:00,
2013-10-19 00:54:00,41.0,27.0,30.18,SSE,149,4.0,10.0,56,0.00,,,0.00,,2013-10-19 04:54:00,
2013-10-19 01:22:00,41.0,26.0,30.16,SE,146,6.0,10.0,54,0.00,,,0.00,,2013-10-19 05:22:00,
2013-10-19 01:42:00,42.0,26.0,30.15,SSE,151,5.0,12.0,53,0.00,,,0.00,,2013-10-19 05:42:00,
2013-10-19 01:52:00,42.0,26.0,30.16,SE,146,6.0,10.0,52,0.00,,,0.00,,2013-10-19 05:52:00,
2013-10-19 02:21:00,41.0,25.0,30.15,SSE,158,5.0,10.0,53,0.00,,,0.00,,2013-10-19 06:21:00,
2013-10-19 02:42:00,41.0,26.0,30.15,SSE,165,6.0,12.0,54,0.00,,,0.00,,2013-10-19 06:42:00,
2013-10-19 02:52:00,41.0,25.0,30.15,SSE,167,7.0,14.0,53,0.00,,,0.00,,2013-10-19 06:52:00,
2013-10-19 03:21:00,40.0,25.0,30.14,South,179,2.0,9.0,55,0.00,,,0.00,,2013-10-19 07:21:00,
2013-10-19 03:42:00,40.0,26.0,30.15,South,179,3.0,5.0,56,0.00,,,0.00,,2013-10-19 07:42:00,
2013-10-19 03:52:00,39.0,25.0,30.16,South,177,3.0,6.0,57,0.00,,,0.00,,2013-10-19 07:52:00,
2013-10-19 04:11:00,39.0,25.0,30.15,South,174,3.0,6.0,57,0.00,,,0.00,,2013-10-19 08:11:00,
2013-10-19 04:22:00,39.0,25.0,30.14,SSE,162,6.0,8.0,57,0.00,,,0.00,,2013-10-19 08:22:00,
2013-10-19 04:42:00,39.0,25.0,30.14,SSE,157,5.0,10.0,57,0.00,,,0.00,,2013-10-19 08:42:00,
2013-10-19 04:52:00,39.0,25.0,30.14,South,173,6.0,12.0,56,0.00,,,0.00,,2013-10-19 08:52:00,
2013-10-19 06:23:00,38.0,25.0,30.14,South,170,3.0,9.0,60,0.00,,,0.00,,2013-10-19 10:23:00,
2013-10-19 06:53:00,38.0,26.0,30.14,SSE,156,7.0,12.0,61,0.00,,,0.00,,2013-10-19 10:53:00,
2013-10-19 07:22:00,37.0,25.0,30.13,SSE,168,4.0,12.0,62,0.00,,,0.00,,2013-10-19 11:22:00,
2013-10-19 08:11:00,37.0,25.0,30.18,South,169,7.0,12.0,62,0.00,,,0.00,,2013-10-19 12:11:00,
2013-10-19 08:21:00,37.0,26.0,30.18,South,175,5.0,12.0,63,0.00,,,0.00,,2013-10-19 12:21:00,
2013-10-19 08:42:00,37.0,26.0,30.18,SSE,154,7.0,12.0,63,0.00,,,0.00,,2013-10-19 12:42:00,
2013-10-19 09:11:00,37.0,26.0,30.20,SSE,168,7.0,13.0,64,0.00,,,0.00,,2013-10-19 13:11:00,
2013-10-19 09:42:00,37.0,26.0,30.19,SE,146,8.0,13.0,65,0.00,,,0.00,,2013-10-19 13:42:00,
2013-10-19 09:52:00,36.0,25.0,30.19,SSE,153,5.0,14.0,65,0.00,,,0.00,,2013-10-19 13:52:00,
2013-10-19 10:42:00,37.0,26.0,30.20,South,178,7.0,12.0,65,0.00,,,0.00,,2013-10-19 14:42:00,
2013-10-19 15:52:00,62.0,30.0,30.08,WSW,252,5.0,13.0,30,0.00,,,0.00,,2013-10-19 19:52:00,
2013-10-19 16:52:00,64.0,30.0,30.03,SW,222,4.0,12.0,28,0.00,,,0.00,,2013-10-19 20:52:00,
2013-10-19 17:21:00,64.0,29.0,30.03,SW,232,3.0,12.0,27,0.00,,,0.00,,2013-10-19 21:21:00,
2013-10-19 17:54:00,64.0,29.0,30.01,SW,219,3.0,14.0,27,0.00,,,0.00,,2013-10-19 21:54:00,
2013-10-19 18:24:00,63.0,29.0,30.02,SSW,202,2.0,12.0,27,0.00,,,0.00,,2013-10-19 22:24:00,
2013-10-19 18:43:00,62.0,28.0,30.02,SW,227,2.0,9.0,27,0.00,,,0.00,,2013-10-19 22:43:00,
2013-10-19 18:53:00,63.0,29.0,30.01,SSW,208,3.0,10.0,28,0.00,,,0.00,,2013-10-19 22:53:00,
2013-10-19 19:22:00,64.0,27.0,29.99,WSW,244,5.0,10.0,25,0.00,,,0.00,,2013-10-19 23:22:00,
2013-10-19 19:42:00,64.0,27.0,29.99,WNW,292,5.0,14.0,25,0.00,,,0.00,,2013-10-19 23:42:00,
2013-10-19 19:52:00,63.0,28.0,29.99,WSW,245,3.0,13.0,26,0.00,,,0.00,,2013-10-19 23:52:00,
2013-10-19 20:11:00,62.0,26.0,30.00,SW,227,5.0,12.0,25,0.00,,,0.00,,2013-10-20 00:11:00,
2013-10-19 20:22:00,60.0,26.0,29.99,South,189,3.0,13.0,27,0.00,,,0.00,,2013-10-20 00:22:00,
2013-10-19 20:42:00,60.0,27.0,30.00,WSW,258,3.0,5.0,28,0.00,,,0.00,,2013-10-20 00:42:00,
2013-10-19 20:52:00,58.0,26.0,30.00,SSW,211,2.0,7.0,29,0.00,,,0.00,,2013-10-20 00:52:00,
2013-10-19 21:21:00,56.0,25.0,30.01,SW,227,1.0,6.0,30,0.00,,,0.00,,2013-10-20 01:21:00,
2013-10-19 21:42:00,56.0,25.0,30.01,SW,227,3.0,3.0,30,0.00,,,0.00,,2013-10-20 01:42:00,
2013-10-19 21:52:00,55.0,25.0,30.02,South,190,3.0,6.0,31,0.00,,,0.00,,2013-10-20 01:52:00,
2013-10-19 22:21:00,55.0,26.0,30.01,South,184,5.0,9.0,32,0.00,,,0.00,,2013-10-20 02:21:00,
2013-10-19 22:52:00,55.0,29.0,30.00,SE,146,4.0,12.0,37,0.00,,,0.00,,2013-10-20 02:52:00,
2013-10-19 23:21:00,54.0,28.0,29.97,SSE,162,5.0,10.0,37,0.00,,,0.00,,2013-10-20 03:21:00,
2013-10-19 23:43:00,54.0,27.0,29.96,South,180,6.0,10.0,35,0.00,,,0.00,,2013-10-20 03:43:00,
2013-10-19 23:54:00,54.0,28.0,29.97,South,173,4.0,12.0,36,0.00,,,0.00,,2013-10-20 03:54:00,